Regional Weather Roundup
Issued by NWS Sterling, VA

Home | Current Version | Previous Version | Graphics & Text | Print | Product List | Glossary On
Versions: 1 2 3 4 5 6 7 8 9 10 11 12 13 14 15 16 17 18 19 20 21 22 23 24 25 26 27
000
ASUS41 KLWX 291011
RWRLWX

REGIONAL WEATHER ROUNDUP
NATIONAL WEATHER SERVICE BALTIMORE MD/WASHINGTON DC
600 AM EDT SAT APR 29 2017

Note: "FAIR" indicates few or no clouds below 12,000 feet
with no significant weather and/or obstructions to visibility.
 TC=TEMPERATURE CELSIUS

 * =Non NWS site. Station does not report precipitation (e.g. rain,
    snow, etc.), thunder, or fog.

DCZ001-MDZ009-015-VAZ040>042-051-053>054-291100-
WASHINGTON METRO

CITY           SKY/WX    TMP DP  RH WIND       PRES   REMARKS
WASHINGTON NAT CLOUDY    71  68  90 S13       29.99F
DULLES         CLOUDY    68  63  84 S8        30.00F
ANDREWS AFB    CLOUDY    69  66  90 S12       30.00F
FT BELVOIR     CLOUDY    70  66  87 S6        30.00F
QUANTICO       PTCLDY    69  68  96 SW12      30.03F
COLLEGE PARK*  CLOUDY    72  65  81 S5        29.97F
LEESBURG*      CLOUDY    68  68 100 S7        29.99F
MANASSAS*        N/A     68  65  90 S7        30.01F

$$

MDZ006>007-011-014-291100-
BALTIMORE METRO

CITY           SKY/WX    TMP DP  RH WIND       PRES   REMARKS
BWI AIRPORT    CLOUDY    71  68  90 SW10G18   29.96F
MD SCIENCE CTR   N/A     73  66  78 MISG      29.97F
MARTIN STATE   CLOUDY    72  70  94 W5        29.93F
ANNAPOLIS      CLOUDY    72  71  97 S7        29.98F
FORT MEADE*    CLOUDY    66  64  94 SW8       29.99F

$$

MDZ012-015-019>023-291100-
MARYLAND EASTERN SHORE

CITY           SKY/WX    TMP DP  RH WIND       PRES   REMARKS
OCEAN CITY     CLOUDY    71  69  93 SW6       30.07R FOG
SALISBURY      MOCLDY    75  73  93 SW15      30.08R
BAY BRIDGE AP* CLOUDY    66  66 100 S9        29.98F FOG
CAMBRIDGE*     PTCLDY    72  70  94 VRB3      30.05F
EASTON*        CLOUDY    72  68  88 SW7       30.07F

$$

MDZ017>025-291100-
SOUTHERN MARYLAND

CITY           SKY/WX    TMP DP  RH WIND       PRES   REMARKS
PATUXENT RIVER CLOUDY    74  73  97 SW9       30.06R
ST INIGOES     MOCLDY    74  71  91 W6        30.08R
LEONARDTOWN*   PTCLDY    72  68  88 SW7       30.08F

$$

MDZ003>005-291100-
NORTH CENTRAL MARYLAND

CITY           SKY/WX    TMP DP  RH WIND       PRES   REMARKS
FREDERICK*     MOCLDY    68  68 100 SW6       30.01R
HAGERSTOWN APT MOCLDY    65  64  97 W5        29.99R
WESTMINSTER*   CLOUDY    66  64  94 SW5       29.98S

$$

MDZ501>502-291100-
WESTERN MARYLAND

CITY           SKY/WX    TMP DP  RH WIND       PRES   REMARKS
OAKLAND*         N/A     59  54  82 W9        30.13R
CUMBERLAND*    CLOUDY    63  63 100 CALM      30.06R

$$

VAZ025>031-291100-
SHENANDOAH VALLEY

CITY           SKY/WX    TMP DP  RH WIND       PRES   REMARKS
WINCHESTER*    CLOUDY    64  59  82 SW9       30.01S
FRONT ROYAL*   CLOUDY    64  64 100 S5        30.02S
LURAY*         CLOUDY    70  63  78 SW7       30.05F
NEW MARKET*    CLOUDY    69  62  78 SW9       30.05F
STAUNTON*      CLOUDY    67  62  83 S3        30.11F
WAYNESBORO*    CLOUDY    66  64  92 CALM      30.11F

$$

WVZ021-048>050-054>055-291100-
EASTERN WEST VIRGINIA PANHANDLE

CITY           SKY/WX    TMP DP  RH WIND       PRES   REMARKS
MARTINSBURG    CLOUDY    64  62  93 SW5       29.99S
PETERSBURG*    CLOUDY    63  63  99 E3        30.08R FOG

$$

VAZ036>039-050-291100-
CENTRAL FOOTHILLS

CITY           SKY/WX    TMP DP  RH WIND       PRES   REMARKS
CHARLOTTESVILL CLOUDY    68  64  87 S7        30.07F
CULPEPER*      CLOUDY    69  67  92 SW6       30.04F
ORANGE*        CLOUDY    68  64  88 SW6       30.06F
GORDONSVILLE*  CLOUDY    66  66  99 CALM      30.07F
WARRENTON*     PTCLDY    70  64  80 S7        30.02F

$$

VAZ055>057-291100-
NORTH AND CENTRAL PIEDMONT

CITY           SKY/WX    TMP DP  RH WIND       PRES   REMARKS
FREDERICKSBRG* PTCLDY    71  68  91 S7        30.04F
STAFFORD*      CLOUDY    69  68  96 S3        30.08F

$$

NCZ024-NYZ072-PAZ021-071-VAZ022-071-291100-
OTHER REGIONAL OBSERVATIONS

CITY           SKY/WX    TMP DP  RH WIND       PRES   REMARKS
NEW YORK CITY  CLOUDY    65  64  97 CALM      29.98F FOG
PHILADELPHIA   CLOUDY    68  66  93 N6        29.97F
PITTSBURGH     CLOUDY    56  55  97 CALM      29.99R
ROANOKE        CLOUDY    70  63  78 SE5       30.14R
RICHMOND       CLOUDY    73  72  96 SW8       30.10R
RALEIGH        PTCLDY    73  69  87 SW9       30.17R

$$

ANZ530>537-291100-
MARINE OBSERVATIONS

STATION/POSITION TIME  TEMP    WIND        PRES
                       AIR SEA DIR/SP/G
                 (UTC) (F)     (DEG/KT/KT) (MB)
THOMAS PT LIGHT  1000   67 60  180/ 16/ 17   N/A
BALT KEY BRIDGE  0948   73     200/ 13/ 18 1013.3F
COVE POINT       0948   75     250/ 14/ 21 1017.9F
LEWISETTA        0948   75 68  280/  9/ 11 1018.5R
SOLOMONS ISLAND  0948   71 62  230/ 10/ 11   N/A
PINEY POINT      0948          300/  5/  6   N/A

$$





USA.gov is the U.S. government's official web portal to all federal, state and local government web resources and services.